Regional Weather Roundup
Issued by NWS

Home | Current Version | Previous Version | Graphics & Text | Print | Product List | Glossary On
Versions: 1 2 3 4 5 6 7 8 9 10 11 12 13 14 15 16 17 18 19 20 21 22 23 24 25 26 27 28 29 30 31 32 33 34 35 36 37 38 39 40 41 42 43 44 45 46 47 48 49 50
000
ASUS43 KTOP 261859
RWRKS

WEATHER ROUNDUP FOR KANSAS
NATIONAL WEATHER SERVICE GOODLAND KS
200 PM CDT THU APR 26 2018

NOTE:  "FAIR" INDICATES FEW OR NO CLOUDS BELOW 12,000 FEET WITH NO
SIGNIFICANT WEATHER AND/OR OBSTRUCTIONS TO VISIBILITY.

KSZ001>006-013>018-027>032-041>047-262000-
NORTHWEST KANSAS

CITY           SKY/WX    TMP DP  RH WIND       PRES   REMARKS
GOODLAND       LGT RAIN  62  31  31 N30G47    30.14R
HAYS           SUNNY     69  34  27 NW9G16    30.02F
HILL CITY      CLOUDY    62  40  44 N24G31    30.08R
RUSSELL        SUNNY     69  37  30 NW3       30.00F
$$

KSZ061>065-074>080-084>089-262000-
SOUTHWEST KANSAS

CITY           SKY/WX    TMP DP  RH WIND       PRES   REMARKS
DODGE CITY     MOSUNNY   64  39  39 N9        30.03R
GARDEN CITY    PTSUNNY   59  36  42 N28G40    30.04R
GREAT BEND     MOSUNNY   65  43  44 N7        30.03S
LIBERAL        PTSUNNY   61  39  44 N20G28    30.03R
$$

KSZ066>073-081>083-090>101-262000-
SOUTHEAST KANSAS

CITY           SKY/WX    TMP DP  RH WIND       PRES   REMARKS
CHANUTE        PTSUNNY   63  47  55 VRB7      30.01F
COFFEYVILLE    CLOUDY    60  49  66 S6        30.02S
HUTCHINSON     MOSUNNY   64  43  46 VRB7      30.01S
MEDICINE LODGE   N/A     63  41  44 NE6       30.02R
NEWTON         MOSUNNY   63  44  50 NW8       30.03R
PARSONS        CLOUDY    62  48  60 CALM      30.02F
WICHITA INTL   CLOUDY    66  42  41 VRB5      30.01S
WICHITA JABRA  CLOUDY    65  42  43 VRB5      30.01S
WINFIELD       SUNNY     62  47  57 N6        30.02F
$$

KSZ007>012-019>026-033>040-048>060-102>105-262000-
NORTHEAST KANSAS

CITY           SKY/WX    TMP DP  RH WIND       PRES   REMARKS
CONCORDIA      SUNNY     67  42  40 W12       30.00F
EMPORIA        MOSUNNY   63  45  51 CALM      29.99F
LAWRENCE       CLOUDY    63  46  54 VRB3      29.99F
MANHATTAN      MOSUNNY   64  44  48 W10       30.00F
OLATHE IND     CLOUDY    62  46  55 CALM      30.00F
OLATHE EXE     CLOUDY    61  46  57 MISG      29.99F
SALINA         MOSUNNY   67  45  45 NW7       30.02S
TOPEKA BILLARD CLOUDY    65  49  56 MISG      29.99F
TOPEKA FORBES  CLOUDY    65  46  50 W10       29.99F
$$




USA.gov is the U.S. government's official web portal to all federal, state and local government web resources and services.